Location: ???????
(38.3360°N, 23.6977°E)
Time: 20:50:15
(UTC+00:00)

OAO 3 Rocket - Pass Details

Date: 17 November 2025
Orbit: 613 x 661 km, 35.0° (Epoch: 10 December)

Event Time Altitude Azimuth Distance (km) Brightness Sun altitude
Rises 15:57:46 0° 255° (WSW) 2,923 9.0 -9.4°
Reaches altitude 10° 16:00:10 10° 251° (WSW) 2,007 7.3 -9.8°
Maximum altitude 16:04:43 54° 174° (S) 755 3.6 -10.7°
Enters shadow 16:08:37 13° 99° (E) 1,762 4.8 -11.4°
